"Pseudo-MPEC" for W09491
Created 2023 Nov 24 15:22:18 UT using Find_Orb
Click here for an explanation of pseudo-MPECs
Astrometry: W09491 * C2023 11 17tkme3r2j*1;F9b!5s!\J'\+Ug%sZK,FlSeY%xIdcd0Le8E@Np!1U
O18 W09491 C2023 11 17WR5Pf`PM`
AstrometryvZLU`
redacted;$%Jg
clicki4CpS5osde
O18 W09491 C2023 11 17uOu,
here'0\Gpft1cU]ro;w?(
forg-%
explanation7`;,Y%L..G
O18 Station data: (O18) WFST, Lenghu (N38.607601 E93.895220). Orbital elements: W09491 Perihelion 2024 Apr 30.68052 +/- 179 TT = 16:19:57 (JD 2460431.18052) Epoch 2023 Nov 18.0 TT = JDT 2460266.5 Earth MOID: 0.1599 AutoNEOCP M 275.30412892 +/- 70 (J2000 ecliptic) n 0.51430412 +/- 0.308 Peri. 317.32108 +/- 80 a 1.54284647 +/- 0.616 Node 238.71409 +/- 1.0 e 0.5088329 +/- 0.25 Incl. 28.48218 +/- 34 P 1.92/699.96d H 19.64 G 0.15 U 12.0 SR q 0.75779527 +/- 0.635 Q 2.32789767 +/- 25.5 From 3 observations 2023 Nov. 17 (15.5 min); mean residual 0".09
Residuals in arcseconds: 231117 O18 .01+ .09- 231117 O18 .02- .18+ 231117 O18 .01+ .09- Ephemerides (geocentric): Date (UTC) HH RA Dec delta r elong mag " sig PA ---- -------- ------------ ------------ ------ ------ ----- --- -------- 2023 11 24 15 03 46 06.134 +18 02 29.45 .81052 1.7968 176.2 20.7 32d 105 2023 11 24 16 03 46 00.728 +18 01 18.31 .81032 1.7966 176.1 20.7 33d 105 2023 11 24 17 03 45 55.320 +18 00 07.12 .81013 1.7964 176.0 20.7 33d 105 2023 11 24 18 03 45 49.912 +17 58 55.91 .80993 1.7961 176.0 20.7 33d 105 2023 11 24 19 03 45 44.503 +17 57 44.65 .80974 1.7959 175.9 20.7 33d 105 2023 11 24 20 03 45 39.093 +17 56 33.35 .80954 1.7956 175.8 20.7 33d 105 2023 11 24 21 03 45 33.681 +17 55 22.02 .80935 1.7954 175.8 20.7 33d 105 2023 11 24 22 03 45 28.269 +17 54 10.64 .80916 1.7952 175.7 20.7 33d 105 2023 11 24 23 03 45 22.856 +17 52 59.23 .80897 1.7949 175.6 20.7 33d 105 2023 11 25 00 03 45 17.443 +17 51 47.79 .80878 1.7947 175.6 20.7 33d 105 2023 11 25 01 03 45 12.028 +17 50 36.30 .80858 1.7944 175.5 20.7 33d 105 2023 11 25 02 03 45 06.613 +17 49 24.78 .80839 1.7942 175.4 20.7 33d 104 2023 11 25 03 03 45 01.196 +17 48 13.22 .80820 1.7940 175.4 20.7 33d 104 2023 11 25 04 03 44 55.779 +17 47 01.62 .80802 1.7937 175.3 20.7 33d 104 2023 11 25 05 03 44 50.361 +17 45 49.98 .80783 1.7935 175.2 20.7 33d 104 2023 11 25 06 03 44 44.943 +17 44 38.31 .80764 1.7933 175.2 20.7 33d 104 2023 11 25 07 03 44 39.523 +17 43 26.60 .80745 1.7930 175.1 20.7 33d 104 2023 11 25 08 03 44 34.103 +17 42 14.86 .80727 1.7928 175.0 20.7 33d 104 2023 11 25 09 03 44 28.682 +17 41 03.07 .80708 1.7925 175.0 20.7 33d 104 2023 11 25 10 03 44 23.260 +17 39 51.26 .80689 1.7923 174.9 20.7 33d 104 2023 11 25 11 03 44 17.838 +17 38 39.40 .80671 1.7921 174.8 20.7 33d 104 2023 11 25 12 03 44 12.415 +17 37 27.51 .80652 1.7918 174.8 20.7 33d 104 2023 11 25 13 03 44 06.991 +17 36 15.58 .80634 1.7916 174.7 20.7 33d 104 2023 11 25 14 03 44 01.567 +17 35 03.62 .80616 1.7913 174.6 20.7 33d 104 2023 11 25 15 03 43 56.142 +17 33 51.62 .80597 1.7911 174.6 20.7 33d 104 2023 11 25 16 03 43 50.716 +17 32 39.59 .80579 1.7909 174.5 20.7 33d 104 2023 11 25 17 03 43 45.290 +17 31 27.52 .80561 1.7906 174.4 20.7 33d 104 2023 11 25 18 03 43 39.863 +17 30 15.41 .80543 1.7904 174.4 20.7 33d 104 2023 11 25 19 03 43 34.435 +17 29 03.27 .80525 1.7901 174.3 20.7 33d 104 2023 11 25 20 03 43 29.007 +17 27 51.10 .80507 1.7899 174.2 20.7 33d 104 2023 11 25 21 03 43 23.579 +17 26 38.89 .80489 1.7897 174.2 20.8 33d 104 2023 11 25 22 03 43 18.149 +17 25 26.64 .80471 1.7894 174.1 20.8 33d 104 2023 11 25 23 03 43 12.720 +17 24 14.36 .80453 1.7892 174.0 20.8 33d 104 2023 11 26 00 03 43 07.289 +17 23 02.05 .80436 1.7889 173.9 20.8 33d 104 2023 11 26 01 03 43 01.859 +17 21 49.70 .80418 1.7887 173.9 20.8 33d 104 2023 11 26 02 03 42 56.427 +17 20 37.32 .80400 1.7884 173.8 20.8 33d 104 2023 11 26 03 03 42 50.995 +17 19 24.90 .80383 1.7882 173.7 20.8 33d 104 2023 11 26 04 03 42 45.563 +17 18 12.45 .80365 1.7880 173.7 20.8 33d 104 2023 11 26 05 03 42 40.130 +17 16 59.97 .80348 1.7877 173.6 20.8 33d 104 2023 11 26 06 03 42 34.697 +17 15 47.45 .80330 1.7875 173.5 20.8 33d 104 2023 11 26 07 03 42 29.264 +17 14 34.90 .80313 1.7872 173.5 20.8 33d 104 2023 11 26 08 03 42 23.830 +17 13 22.32 .80296 1.7870 173.4 20.8 33d 104 2023 11 26 09 03 42 18.395 +17 12 09.70 .80278 1.7868 173.3 20.8 33d 104 2023 11 26 10 03 42 12.961 +17 10 57.05 .80261 1.7865 173.3 20.8 33d 104 2023 11 26 11 03 42 07.526 +17 09 44.37 .80244 1.7863 173.2 20.8 33d 104 2023 11 26 12 03 42 02.090 +17 08 31.66 .80227 1.7860 173.1 20.8 33d 104 2023 11 26 13 03 41 56.654 +17 07 18.91 .80210 1.7858 173.1 20.8 33d 104 2023 11 26 14 03 41 51.218 +17 06 06.13 .80193 1.7856 173.0 20.8 33d 104